Flag Weather past 2 weeks in Sherbrooke, Quebec, Canada

Now
41 °F

Light rain. Overcast.


Feels Like: 37 °F
Forecast: 37 / 45 °F
Wind: 6 mph from Northwest

Location: Sherbrooke

Current Time: Oct 30, 2014 at 10:04:59 AM

Latest Report: Oct 30, 2014 at 9:00 AM


Visibility: 9 mi

Pressure: 29.93 "Hg

Humidity: 81%

Dew point: 36 °F

Location of SherbrookeLocation

Historic Weather in Sherbrooke — Graph

°F

Sherbrooke temperature yesterday

Maximum temperature yesterday: 55 °F (at 11:57 AM)
Minimum temperature yesterday: 45 °F (at 10:00 PM)
Average temperature yesterday: 51 °F

Past Weeks' High & Low Weather Summary

 TemperatureHumidityPressure
High79 °F (Oct 15, 2:00 PM)100% (Oct 17, 11:00 AM)30.27 "Hg (Oct 17, 11:00 AM)
Low30 °F (Oct 25, 5:00 AM)51% (Oct 15, 2:00 PM)29.36 "Hg (Oct 26, 3:00 AM)
Average48 °F85%29.82 "Hg
* Reported Oct 15 9:00 AM — Oct 30 9:00 AM, Sherbrooke, Weather by CustomWeather, © 2014

Note: Actual official high and low records may vary slightly from our data, if they occured in-between our weather recording intervals... More about our weather records

Advertising

Sherbrooke weather history for previous 24 hours

 ConditionsComfort  
Time TempWeatherWind HumidityBarometerVisibility
9:00 AM
Oct 30
41 °FLight rain. Overcast.6 mph81%29.93 "Hg9 mi
8:55 AM41 °FLight rain. Overcast.8 mph81%29.93 "Hg9 mi
8:00 AM43 °FMostly cloudy.8 mph81%29.90 "Hg9 mi
7:55 AM43 °FOvercast.6 mph81%29.90 "Hg9 mi
7:00 AM43 °FMostly cloudy.8 mph87%29.87 "Hg9 mi
6:00 AM45 °FLight rain. Mostly cloudy.8 mph87%29.85 "Hg9 mi
5:47 AM45 °FLight rain. Overcast.8 mph87%29.84 "Hg9 mi
5:00 AM45 °FMostly cloudy.7 mph81%29.83 "Hg9 mi
4:00 AM45 °FMostly cloudy.8 mph81%29.83 "Hg9 mi
3:00 AM45 °FOvercast.6 mph81%29.82 "Hg9 mi
2:00 AM45 °FOvercast.8 mph81%29.82 "Hg9 mi
1:00 AM43 °FOvercast.6 mph81%29.81 "Hg9 mi
12:00 AM45 °FOvercast.7 mph76%29.81 "Hg9 mi
11:00 PM
Oct 29
45 °FPassing clouds.5 mph71%29.82 "Hg9 mi
10:00 PM45 °FClear.6 mph71%29.82 "Hg9 mi
9:00 PM46 °FPassing clouds.5 mph66%29.83 "Hg9 mi
8:00 PM48 °FMostly cloudy.13 mph62%29.83 "Hg9 mi
7:00 PM50 °FPassing clouds.14 mph62%29.79 "Hg9 mi
6:00 PM52 °FOvercast.9 mph62%29.78 "Hg9 mi
5:00 PM52 °FPartly sunny.3 mph62%29.77 "Hg9 mi
4:00 PM54 °FPartly sunny.15 mph54%29.78 "Hg9 mi
3:00 PM55 °FMore clouds than sun.14 mph63%29.78 "Hg9 mi
2:00 PM55 °FOvercast.14 mph72%29.76 "Hg9 mi
1:04 PM55 °FCloudy.9 mph82%29.77 "Hg9 mi
1:00 PM55 °FMostly cloudy.13 mph88%29.77 "Hg9 mi
12:00 PM55 °FMostly cloudy.3 mph94%29.79 "Hg9 mi
11:57 AM55 °FMostly cloudy.6 mph94%29.78 "Hg9 mi
11:00 AM54 °FFog.2 mph94%29.78 "Hg6 mi
10:00 AM52 °FOvercast.No wind94%29.80 "Hg8 mi
Weather by CustomWeather, © 2014

See weather overviewHow to use our weather pages